Location: Diati
(11.8376°N, 2.5966°E)
Time: 17:38:31
(UTC+00:00)

DMSP B5D2-2 - Pass Details

Date: 21 September 2020
Orbit: 790 x 805 km, 98.3° (Epoch: 19 October)

Event Time Altitude Azimuth Distance (km) Brightness Sun altitude
Rises 19:07:23 0° 17° (NNE) 3,307 7.2 -20.7°
Reaches altitude 10° 19:09:44 10° 20° (NNE) 2,376 6.4 -21.3°
Maximum altitude 19:14:57 65° 102° (ESE) 877 4.0 -22.5°
Drops below altitude 10° 19:20:08 10° 183° (S) 2,367 6.5 -23.8°
Sets 19:22:28 0° 186° (S) 3,295 7.3 -24.4°
